Aérodrome :
LOGIN :

S'inscrire | Disclaimer

   EN    FR    IT 

 










Légende :    VFR   VFR Marginal   IFR   IFR Intensif   IFR Très Intensif
Visi : 
Plafond : 
>= 8 km
>= 3000ft
5 à 8 km
1000 à 3000 ft
1500m à 5 km
500 à 1000 ft
800 à 1500m
200 à 500 ft
< 800m
< 200 ft
Symboles :   Orages  Brouillard  Fortes neiges  Fortes précipitations  Vent > 20 kt
SIGMETs :   Divers  Orages  Givrage  Turbulence  Onde Orograph.  Cendres Volcan.







- Altitude de l'aérodrome : 56 ft


LPOV - Ovar Air Base

DERNIER METAR :
  • 180600Z VRB01KT 0300 FG BKN001 05/04 Q1019

METARs EXPIRÉS :
  • 180500Z 00000KT 1000 BR SCT002 03/02 Q1019
  • 180400Z VRB01KT 0900 FG FEW002 03/03 Q1019

TAF TAF LPOV
Valide du 18 à 06h jusqu'au 19 à 06h UTC


180510Z 1806/1906 VRB02KT 3000 BR SCT003
PROB40 1806/1809 0400 FG BKN002
BECMG 1809/1812 CAVOK
TEMPO 1814/1818 35005KT
Pas de NOTAMs connus pour ce terrain.



MET'MAP, la Météo Aéronautique d'un coup d'oeil ! - Copyright ORBIFLY Décembre 2007 - Disclaimer

ORBIFLY MET'MAP TEAM :

Programmation & Développement : Alexandra Zaïnal
Conception & Développement : Baudouin d'Aumeries
Co-Programmation & Développement : Marc-Olivier Méhu
Soutien technique & logistique : Manuel Goepfert

Contact : metmap@orbifly.com




SOURCES & CREDITS :

   NOAA